EW5447 Weather Reports


Display with metric or nautical units.
time (UTC)temp
F
wind
direction
speed
MPH
gust
MPH
rain 1hr
in
rain 24hr
in
rain mn
in
humidity
%
barometer
mb
20260905004504 62 300 2.0 8.0 0.00 0.03 0.03 62 1015.1
20260905003002 63 275 8.0 13.0 0.00 0.03 0.03 60 1014.9
20260905001602 63 246 6.0 11.0 0.00 0.03 0.03 59 1014.9
20260905000100 64 232 10.0 16.0 0.00 0.03 0.03 58 1014.8
20260904234600 66 282 7.0 15.0 0.00 0.03 0.03 54 1014.6
20260904233106 66 257 0.0 3.0 0.00 0.03 0.03 50 1014.4
20260904231606 67 271 1.0 4.0 0.00 0.03 0.03 51 1014.3
20260904230057 67 321 1.0 5.0 0.00 0.03 0.03 50 1014.2
20260904224557 67 342 3.0 9.0 0.00 0.03 0.03 51 1014.3
20260904223057 67 38 2.0 9.0 0.00 0.03 0.03 50 1014.3
20260904221604 68 5 1.0 5.0 0.00 0.03 0.03 50 1014.3
20260904220058 66 270 0.0 4.0 0.00 0.03 0.03 51 1014.4
20260904214553 66 196 0.0 5.0 0.00 0.03 0.03 54 1014.4
20260904213051 67 209 3.0 10.0 0.00 0.03 0.03 51 1014.4
20260904211548 65 113 3.0 7.0 0.00 0.03 0.03 55 1014.4
20260904210052 64 180 2.0 5.0 0.00 0.03 0.03 57 1014.4
20260904204544 64 138 2.0 5.0 0.00 0.03 0.03 57 1014.5
20260904203052 64 115 2.0 4.0 0.00 0.03 0.03 55 1014.3
20260904201543 64 49 1.0 3.0 0.00 0.03 0.03 56 1014.4
20260904200056 64 223 1.0 5.0 0.00 0.03 0.03 56 1014.4
20260904194540 63 248 2.0 4.0 0.00 0.03 0.03 57 1014.6
20260904193038 63 257 1.0 5.0 0.00 0.03 0.03 61 1014.7
20260904191536 62 146 1.0 3.0 0.00 0.03 0.03 64 1014.7
20260904190033 62 321 0.0 3.0 0.00 0.03 0.03 63 1014.8
20260904184537 62 219 1.0 3.0 0.00 0.03 0.03 65 1014.8
20260904183034 62 343 1.0 4.0 0.00 0.03 0.03 65 1014.8
20260904181528 61 313 0.0 2.0 0.00 0.03 0.03 68 1014.8
20260904180037 61 303 0.0 4.0 0.00 0.03 0.03 69 1014.8
20260904174521 58 240 0.0 2.0 0.00 0.03 0.03 81 1014.8
20260904173017 56 101 0.0 2.0 0.00 0.03 0.03 82 1014.8
20260904171515 56 333 0.0 2.0 0.00 0.03 0.03 85 1014.7
20260904170012 55 269 0.0 2.0 0.00 0.03 0.03 87 1014.6
20260904164508 54 257 0.0 2.0 0.00 0.03 0.03 87 1014.5
20260904163014 53 140 0.0 2.0 0.00 0.03 0.03 89 1014.5
20260904161502 53 223 1.0 2.0 0.00 0.03 0.03 90 1014.5
20260904160059 52 306 0.0 2.0 0.00 0.03 0.03 90 1014.4
20260904154601 51 329 0.0 0.0 0.00 0.03 0.03 91 1014.3
20260904153057 51 306 0.0 1.0 0.00 0.03 0.03 91 1014.3
20260904151552 51 346 0.0 2.0 0.00 0.03 0.03 92 1014.2
20260904150047 50 325 0.0 2.0 0.00 0.03 0.03 92 1014.0
20260904144543 50 299 0.0 0.0 0.00 0.04 0.03 92 1013.9
20260904143041 50 50 0.0 2.0 0.00 0.04 0.03 91 1013.6
20260904141547 49 53 0.0 0.0 0.00 0.04 0.03 92 1013.6
20260904140033 49 54 0.0 2.0 0.01 0.04 0.03 93 1013.4
20260904134539 49 28 0.0 0.0 0.02 0.04 0.03 93 1013.1
20260904133025 49 28 0.0 0.0 0.03 0.04 0.03 93 1013.0
20260904131520 49 348 0.0 0.0 0.03 0.04 0.03 93 1013.1
20260904130016 49 272 0.0 0.0 0.02 0.03 0.02 93 1013.1
20260904124516 49 272 0.0 0.0 0.01 0.02 0.01 93 1012.9
20260904123014 49 192 0.0 0.0 0.00 0.01 0.00 93 1012.8
20260904121512 49 175 0.0 0.0 0.00 0.01 0.00 93 1012.7
20260904120012 49 175 0.0 0.0 0.00 0.01 0.00 93 1012.7
20260904114512 49 175 0.0 2.0 0.00 0.01 0.00 93 1012.6
20260904113009 49 10 0.0 0.0 0.00 0.01 0.00 93 1012.6
20260904111548 49 24 0.0 0.0 0.00 0.01 0.00 93 1012.5
20260904110047 48 24 0.0 0.0 0.00 0.01 0.00 93 1012.6
20260904104546 48 24 0.0 1.0 0.00 0.01 0.00 93 1012.6
20260904103045 48 26 0.0 2.0 0.00 0.01 0.00 92 1012.5
20260904101544 47 219 0.0 0.0 0.00 0.01 0.00 92 1012.6
20260904100052 47 222 0.0 2.0 0.00 0.01 0.00 91 1012.5
20260904094553 48 279 0.0 0.0 0.00 0.01 0.00 90 1012.3
20260904093042 48 304 0.0 0.0 0.00 0.01 0.00 89 1012.5
20260904091541 49 321 0.0 0.0 0.00 0.01 0.00 89 1012.4
20260904090052 49 273 0.0 0.0 0.00 0.01 0.00 89 1012.5
20260904084541 49 275 0.0 0.0 0.00 0.01 0.00 87 1012.7
20260904083107 50 40 0.0 0.0 0.00 0.01 0.00 88 1012.7
20260904081535 49 50 1.0 2.0 0.00 0.01 0.00 90 1012.6
20260904080037 49 28 1.0 5.0 0.00 0.01 0.00 89 1012.5
20260904074532 48 44 0.0 2.0 0.00 0.01 0.00 91 1012.5
20260904073029 48 130 0.0 2.0 0.00 0.01 0.00 89 1012.4
20260904071527 48 246 0.0 0.0 0.00 0.01 0.00 87 1012.5
20260904070046 48 238 0.0 2.0 0.00 0.01 0.00 86 1012.2
20260904064524 48 299 0.0 0.0 0.00 0.01 0.01 84 1012.2
20260904063028 49 302 0.0 0.0 0.00 0.01 0.01 83 1012.1
20260904061528 50 24 0.0 2.0 0.00 0.01 0.01 81 1012.1
20260904060022 51 44 0.0 0.0 0.00 0.01 0.01 79 1012.0
20260904054523 52 36 0.0 2.0 0.00 0.02 0.01 77 1012.1
20260904053040 54 312 1.0 4.0 0.00 0.02 0.01 73 1012.2
20260904051620 55 277 0.0 2.0 0.00 0.02 0.01 69 1012.2
20260904050021 55 263 1.0 3.0 0.00 0.02 0.01 69 1012.3
20260904044522 55 225 2.0 5.0 0.00 0.04 0.01 69 1012.3
20260904043029 56 245 2.0 5.0 0.00 0.04 0.01 69 1012.3
20260904041517 56 244 0.0 2.0 0.00 0.04 0.01 72 1012.2
20260904040017 56 144 0.0 2.0 0.00 0.04 0.01 73 1012.1
20260904034517 56 247 0.0 3.0 0.00 0.05 0.01 70 1012.0
20260904033016 56 282 2.0 5.0 0.00 0.05 0.01 70 1011.5
20260904031524 57 270 5.0 9.0 0.00 0.05 0.01 70 1011.4
20260904030015 57 257 3.0 11.0 0.00 0.05 0.01 68 1011.5
20260904024514 59 257 6.0 11.0 0.00 0.11 0.01 63 1011.4
20260904023013 60 283 5.0 10.0 0.00 0.11 0.01 58 1011.4
20260904021521 60 268 5.0 12.0 0.00 0.11 0.01 58 1011.2
20260904020012 61 265 5.0 9.0 0.00 0.11 0.01 57 1011.2
20260904014512 62 290 7.0 11.0 0.00 0.24 0.01 56 1011.2
20260904013012 62 247 8.0 12.0 0.00 0.24 0.01 54 1011.4
20260904011511 63 275 6.0 14.0 0.00 0.24 0.01 51 1011.2
20260904010010 64 256 9.0 16.0 0.00 0.24 0.01 50 1011.2